����,���ϕ���(m/s),���ϕ���,�ő�u�ԕ���(m/s),�ő啗��������,�C��(��),���x(%),10���Ԉړ��ώZ�J��(mm),1���Ԉړ��ώZ�J��(mm),���J��(mm),�݌v�J��(mm)
2023-12-11T00:00:00+09:00,2.5,���k��,4.5,���k��,13.5,79.9,0,0,0,0
2023-12-11T00:01:00+09:00,2.6,���k��,4.5,���k��,13.5,79.8,0,0,0,0
2023-12-11T00:02:00+09:00,2.7,���k��,4.5,���k��,13.5,79.8,0,0,0,0
2023-12-11T00:03:00+09:00,2.6,���k��,4.5,���k��,13.4,80.2,0,0,0,0
2023-12-11T00:04:00+09:00,2.6,���k��,4.5,���k��,13.4,80.5,0,0,0,0
2023-12-11T00:05:00+09:00,2.5,���k��,4.5,���k��,13.4,80.3,0,0,0,0
2023-12-11T00:06:00+09:00,2.5,���k��,4.5,���k��,13.4,80.2,0,0,0,0
2023-12-11T00:07:00+09:00,2.6,���k��,5.3,���k��,13.4,79.7,0,0,0,0
2023-12-11T00:08:00+09:00,2.6,���k��,5.3,���k��,13.4,79.3,0,0,0,0
2023-12-11T00:09:00+09:00,2.5,���k��,5.3,���k��,13.4,79.6,0,0,0,0
2023-12-11T00:10:00+09:00,2.4,���k��,5.3,���k��,13.3,79.9,0,0,0,0
2023-12-11T00:11:00+09:00,2.3,���k��,5.3,���k��,13.4,79.9,0,0,0,0
2023-12-11T00:12:00+09:00,2.3,���k��,5.3,���k��,13.4,79.8,0,0,0,0
2023-12-11T00:13:00+09:00,2.3,���k��,5.3,���k��,13.4,79.8,0,0,0,0
2023-12-11T00:14:00+09:00,2.3,���k��,5.3,���k��,13.4,79.8,0,0,0,0
2023-12-11T00:15:00+09:00,2.3,���k��,5.3,���k��,13.4,79.8,0,0,0,0
2023-12-11T00:16:00+09:00,2.2,���k��,5.3,���k��,13.4,79.6,0,0,0,0
2023-12-11T00:17:00+09:00,2,���k��,4.9,���k��,13.4,79.8,0,0,0,0
2023-12-11T00:18:00+09:00,1.7,���k��,3.6,���k��,13.4,79.9,0,0,0,0
2023-12-11T00:19:00+09:00,1.6,���k��,3.6,���k��,13.4,79.9,0,0,0,0
2023-12-11T00:20:00+09:00,1.5,���k��,3.6,���k��,13.4,79.7,0,0,0,0
2023-12-11T00:21:00+09:00,1.3,���k��,3.3,���k��,13.4,79.2,0,0,0,0
2023-12-11T00:22:00+09:00,1.2,���k��,2.7,�k��,13.4,79.2,0,0,0,0
2023-12-11T00:23:00+09:00,1.1,���k��,2.7,�k��,13.4,79.4,0,0,0,0
2023-12-11T00:24:00+09:00,1.1,���k��,2.7,�k��,13.4,79,0,0,0,0
2023-12-11T00:25:00+09:00,1.1,���k��,2.5,���k��,13.4,79.1,0,0,0,0
2023-12-11T00:26:00+09:00,1.1,���k��,2.5,���k��,13.4,79.1,0,0,0,0
2023-12-11T00:27:00+09:00,1.1,���k��,2.5,���k��,13.3,79.2,0,0,0,0
2023-12-11T00:28:00+09:00,1.2,���k��,2.5,���k��,13.3,79,0,0,0,0
2023-12-11T00:29:00+09:00,1.3,���k��,2.9,���k��,13.3,78.9,0,0,0,0
2023-12-11T00:30:00+09:00,1.5,���k��,3.2,�k��,13.3,78.6,0,0,0,0
2023-12-11T00:31:00+09:00,1.6,���k��,3.2,�k��,13.3,78.6,0,0,0,0
2023-12-11T00:32:00+09:00,1.8,���k��,3.9,�k��,13.3,78.6,0,0,0,0
2023-12-11T00:33:00+09:00,1.9,���k��,3.9,�k��,13.3,78.7,0,0,0,0
2023-12-11T00:34:00+09:00,2,���k��,3.9,�k��,13.2,78.7,0,0,0,0
2023-12-11T00:35:00+09:00,2,���k��,3.9,�k��,13.2,78.4,0,0,0,0
2023-12-11T00:36:00+09:00,2.1,���k��,3.9,�k��,13.3,78.1,0,0,0,0
2023-12-11T00:37:00+09:00,2.2,���k��,3.9,�k��,13.3,77.9,0,0,0,0
2023-12-11T00:38:00+09:00,2.4,���k��,3.9,�k��,13.3,77.8,0,0,0,0
2023-12-11T00:39:00+09:00,2.4,�k��,3.9,�k��,13.3,77.8,0,0,0,0
2023-12-11T00:40:00+09:00,2.4,�k��,3.9,�k��,13.2,77.9,0,0,0,0
2023-12-11T00:41:00+09:00,2.4,�k��,4,���k��,13.2,77.9,0,0,0,0
2023-12-11T00:42:00+09:00,2.6,�k��,5.7,�k�k��,13.3,77.3,0,0,0,0
2023-12-11T00:43:00+09:00,2.8,�k��,5.7,�k�k��,13.3,76.9,0,0,0,0
2023-12-11T00:44:00+09:00,2.9,�k��,5.7,�k�k��,13.3,77.1,0,0,0,0
2023-12-11T00:45:00+09:00,3,�k��,5.7,�k�k��,13.2,77.5,0,0,0,0
2023-12-11T00:46:00+09:00,3,�k��,5.7,�k�k��,13.2,77.7,0,0,0,0
2023-12-11T00:47:00+09:00,3.2,�k��,5.7,�k�k��,13.2,77.7,0,0,0,0
2023-12-11T00:48:00+09:00,3.3,�k��,5.7,�k�k��,13.2,77.5,0,0,0,0
2023-12-11T00:49:00+09:00,3.3,�k��,5.7,�k�k��,13.2,77.4,0,0,0,0
2023-12-11T00:50:00+09:00,3.3,�k��,5.7,�k�k��,13.1,77.7,0,0,0,0
2023-12-11T00:51:00+09:00,3.3,�k��,5.7,�k�k��,13.1,77.9,0,0,0,0
2023-12-11T00:52:00+09:00,3.1,�k��,5.5,�k��,13.1,78,0,0,0,0
2023-12-11T00:53:00+09:00,2.9,�k��,5.5,�k��,13.1,78.2,0,0,0,0
2023-12-11T00:54:00+09:00,2.8,�k��,5.5,�k��,13.1,78.1,0,0,0,0
2023-12-11T00:55:00+09:00,2.8,�k��,5.5,�k��,13.1,77.9,0,0,0,0
2023-12-11T00:56:00+09:00,2.7,�k��,5.5,�k��,13.1,77.9,0,0,0,0
2023-12-11T00:57:00+09:00,2.5,�k��,4.5,�k�k��,13.1,78,0,0,0,0
2023-12-11T00:58:00+09:00,2.4,�k��,4,�k��,13,78.1,0,0,0,0
2023-12-11T00:59:00+09:00,2.4,�k��,4,�k��,13,78.2,0,0,0,0
2023-12-11T01:00:00+09:00,2.5,�k��,4,�k��,13.1,78.1,0,0,0,0
2023-12-11T01:01:00+09:00,2.3,�k��,3.7,�k��,13,78.1,0,0,0,0
2023-12-11T01:02:00+09:00,2.3,���k��,3.7,�k��,13,78.2,0,0,0,0
2023-12-11T01:03:00+09:00,2.3,�k��,3.7,�k��,12.9,78.4,0,0,0,0
2023-12-11T01:04:00+09:00,2.2,�k��,3.7,�k��,12.9,78.5,0,0,0,0
2023-12-11T01:05:00+09:00,2.1,�k��,3.7,�k��,12.9,78.7,0,0,0,0
2023-12-11T01:06:00+09:00,2,�k��,3.7,�k��,12.9,78.7,0,0,0,0
2023-12-11T01:07:00+09:00,2.1,���k��,5,���k��,12.9,78.7,0,0,0,0
2023-12-11T01:08:00+09:00,2.3,���k��,5.5,���k��,13,78.4,0,0,0,0
2023-12-11T01:09:00+09:00,2.4,���k��,5.9,���k��,13,78.2,0,0,0,0
2023-12-11T01:10:00+09:00,2.4,���k��,5.9,���k��,13,78.1,0,0,0,0
2023-12-11T01:11:00+09:00,2.5,���k��,5.9,���k��,13,78.1,0,0,0,0
2023-12-11T01:12:00+09:00,2.7,���k��,5.9,���k��,13,78,0,0,0,0
2023-12-11T01:13:00+09:00,2.7,���k��,5.9,���k��,13,78.1,0,0,0,0
2023-12-11T01:14:00+09:00,2.9,���k��,5.9,���k��,12.9,78.1,0,0,0,0
2023-12-11T01:15:00+09:00,3,���k��,5.9,���k��,13,77.9,0,0,0,0
2023-12-11T01:16:00+09:00,3.1,���k��,5.9,���k��,12.9,78.1,0,0,0,0
2023-12-11T01:17:00+09:00,3,���k��,5.9,���k��,12.8,78.3,0,0,0,0
2023-12-11T01:18:00+09:00,2.8,���k��,5.9,���k��,12.8,78.4,0,0,0,0
2023-12-11T01:19:00+09:00,2.7,���k��,5.5,�k��,12.8,78.4,0,0,0,0
2023-12-11T01:20:00+09:00,2.8,���k��,5.5,�k��,12.9,78.4,0,0,0,0
2023-12-11T01:21:00+09:00,2.9,���k��,5.7,���k��,12.9,78.2,0,0,0,0
2023-12-11T01:22:00+09:00,3,���k��,5.7,���k��,13,77.9,0,0,0,0
2023-12-11T01:23:00+09:00,3,���k��,5.7,���k��,12.9,77.9,0,0,0,0
2023-12-11T01:24:00+09:00,2.9,���k��,5.7,���k��,12.9,77.9,0,0,0,0
2023-12-11T01:25:00+09:00,2.8,���k��,5.7,���k��,12.9,78.1,0,0,0,0
2023-12-11T01:26:00+09:00,2.8,���k��,5.7,���k��,12.9,77.9,0,0,0,0
2023-12-11T01:27:00+09:00,3,���k��,5.7,���k��,12.9,77.9,0,0,0,0
2023-12-11T01:28:00+09:00,3,���k��,5.7,���k��,12.9,77.8,0,0,0,0
2023-12-11T01:29:00+09:00,3,���k��,5.7,���k��,12.9,78,0,0,0,0
2023-12-11T01:30:00+09:00,3,��,5.8,���쓌,12.8,78,0,0,0,0
2023-12-11T01:31:00+09:00,2.9,��,5.8,���쓌,12.9,77.9,0,0,0,0
2023-12-11T01:32:00+09:00,2.9,��,5.8,���쓌,12.9,77.9,0,0,0,0
2023-12-11T01:33:00+09:00,2.9,��,5.8,���쓌,12.9,77.8,0,0,0,0
2023-12-11T01:34:00+09:00,3,��,5.9,���k��,12.8,77.9,0,0,0,0
2023-12-11T01:35:00+09:00,3.1,��,5.9,���k��,12.9,78,0,0,0,0
2023-12-11T01:36:00+09:00,3.1,��,5.9,���k��,12.8,78.1,0,0,0,0
2023-12-11T01:37:00+09:00,3,��,5.9,���k��,12.8,78.2,0,0,0,0
2023-12-11T01:38:00+09:00,3,��,5.9,���k��,12.8,78.3,0,0,0,0
2023-12-11T01:39:00+09:00,3,���k��,5.9,���k��,12.7,78.4,0,0,0,0
2023-12-11T01:40:00+09:00,2.8,���k��,5.9,���k��,12.7,78.6,0,0,0,0
2023-12-11T01:41:00+09:00,2.6,���k��,5.9,���k��,12.7,78.8,0,0,0,0
2023-12-11T01:42:00+09:00,2.5,���k��,5.9,���k��,12.7,78.9,0,0,0,0
2023-12-11T01:43:00+09:00,2.5,���k��,5.9,���k��,12.7,78.9,0,0,0,0
2023-12-11T01:44:00+09:00,2.5,���k��,5.5,���k��,12.8,78.7,0,0,0,0
2023-12-11T01:45:00+09:00,2.4,���k��,4.4,���k��,12.7,78.8,0,0,0,0
2023-12-11T01:46:00+09:00,2.3,���k��,4.4,���k��,12.7,78.9,0,0,0,0
2023-12-11T01:47:00+09:00,2.4,���k��,4.9,���k��,12.7,78.8,0,0,0,0
2023-12-11T01:48:00+09:00,2.5,���k��,4.9,���k��,12.8,78.7,0,0,0,0
2023-12-11T01:49:00+09:00,2.5,���k��,4.9,���k��,12.7,78.7,0,0,0,0
2023-12-11T01:50:00+09:00,2.6,���k��,4.9,���k��,12.7,78.7,0,0,0,0
2023-12-11T01:51:00+09:00,2.6,���k��,4.9,���k��,12.7,78.7,0,0,0,0
2023-12-11T01:52:00+09:00,2.7,���k��,4.9,���k��,12.7,78.7,0,0,0,0
2023-12-11T01:53:00+09:00,2.7,���k��,5.4,���k��,12.7,78.7,0,0,0,0
2023-12-11T01:54:00+09:00,2.7,���k��,5.4,���k��,12.7,78.7,0,0,0,0
2023-12-11T01:55:00+09:00,2.7,���k��,5.4,���k��,12.7,78.8,0,0,0,0
2023-12-11T01:56:00+09:00,2.8,���k��,5.4,���k��,12.7,78.6,0,0,0,0
2023-12-11T01:57:00+09:00,2.7,���k��,5.4,���k��,12.7,78.5,0,0,0,0
2023-12-11T01:58:00+09:00,2.5,���k��,5.4,���k��,12.7,78.7,0,0,0,0
2023-12-11T01:59:00+09:00,2.6,���k��,5.4,���k��,12.7,78.8,0,0,0,0
2023-12-11T02:00:00+09:00,2.6,���k��,5.4,���k��,12.8,78.6,0,0,0,0
2023-12-11T02:01:00+09:00,2.6,���k��,5.4,���k��,12.8,78.6,0,0,0,0
2023-12-11T02:02:00+09:00,2.7,���k��,5.4,���k��,12.8,78.6,0,0,0,0
2023-12-11T02:03:00+09:00,2.7,���k��,5.2,���k��,12.8,78.5,0,0,0,0
2023-12-11T02:04:00+09:00,2.6,���k��,5.2,���k��,12.8,78.6,0,0,0,0
2023-12-11T02:05:00+09:00,2.6,���k��,5.2,���k��,12.7,78.8,0,0,0,0
2023-12-11T02:06:00+09:00,2.6,���k��,5.2,���k��,12.6,79,0,0,0,0
2023-12-11T02:07:00+09:00,2.5,���k��,5.2,���k��,12.6,79.2,0,0,0,0
2023-12-11T02:08:00+09:00,2.7,���k��,5.2,���k��,12.6,79,0,0,0,0
2023-12-11T02:09:00+09:00,2.6,���k��,4.8,���k��,12.6,79,0,0,0,0
2023-12-11T02:10:00+09:00,2.6,���k��,4.8,���k��,12.7,78.7,0,0,0,0
2023-12-11T02:11:00+09:00,2.6,���k��,4.8,���k��,12.7,79,0,0,0,0
2023-12-11T02:12:00+09:00,2.4,���k��,4.7,���k��,12.6,79.1,0,0,0,0
2023-12-11T02:13:00+09:00,2.4,���k��,4.7,���k��,12.6,79.2,0,0,0,0
2023-12-11T02:14:00+09:00,2.5,���k��,4.7,���k��,12.6,79.2,0,0,0,0
2023-12-11T02:15:00+09:00,2.6,���k��,4.7,���k��,12.6,79,0,0,0,0
2023-12-11T02:16:00+09:00,2.7,���k��,4.7,���k��,12.6,78.8,0,0,0,0
2023-12-11T02:17:00+09:00,2.8,���k��,4.7,���k��,12.6,78.6,0,0,0,0
2023-12-11T02:18:00+09:00,2.9,���k��,6.8,���k��,12.6,78.5,0,0,0,0
2023-12-11T02:19:00+09:00,3,���k��,6.8,���k��,12.7,78.1,0,0,0,0
2023-12-11T02:20:00+09:00,3,���k��,6.8,���k��,12.7,78.1,0,0,0,0
2023-12-11T02:21:00+09:00,3,���k��,6.8,���k��,12.6,78.3,0,0,0,0
2023-12-11T02:22:00+09:00,3,���k��,6.8,���k��,12.6,78.5,0,0,0,0
2023-12-11T02:23:00+09:00,3,���k��,6.8,���k��,12.6,78.4,0,0,0,0
2023-12-11T02:24:00+09:00,2.8,���k��,6.8,���k��,12.6,78.4,0,0,0,0
2023-12-11T02:25:00+09:00,2.7,���k��,6.8,���k��,12.6,78.3,0,0,0,0
2023-12-11T02:26:00+09:00,2.6,���k��,6.8,���k��,12.5,78.4,0,0,0,0
2023-12-11T02:27:00+09:00,2.6,���k��,6.8,���k��,12.5,78.6,0,0,0,0
2023-12-11T02:28:00+09:00,2.4,���k��,5.3,���k��,12.6,78.3,0,0,0,0
2023-12-11T02:29:00+09:00,2.3,���k��,4.2,�k��,12.6,78.2,0,0,0,0
2023-12-11T02:30:00+09:00,2.4,���k��,4.9,���k��,12.6,78,0,0,0,0
2023-12-11T02:31:00+09:00,2.6,���k��,4.9,���k��,12.6,78.1,0,0,0,0
2023-12-11T02:32:00+09:00,2.7,���k��,5.4,���k��,12.6,78.2,0,0,0,0
2023-12-11T02:33:00+09:00,3,���k��,8.2,�k��,12.7,77.3,0,0,0,0
2023-12-11T02:34:00+09:00,3.1,���k��,8.2,�k��,12.7,76.9,0,0,0,0
2023-12-11T02:35:00+09:00,3.1,���k��,8.2,�k��,12.7,77,0,0,0,0
2023-12-11T02:36:00+09:00,3.1,���k��,8.2,�k��,12.6,77.4,0,0,0,0
2023-12-11T02:37:00+09:00,2.9,���k��,8.2,�k��,12.6,77.9,0,0,0,0
2023-12-11T02:38:00+09:00,2.8,���k��,8.2,�k��,12.5,78.2,0,0,0,0
2023-12-11T02:39:00+09:00,2.8,���k��,8.2,�k��,12.6,77.7,0,0,0,0
2023-12-11T02:40:00+09:00,2.8,���k��,8.2,�k��,12.6,77.9,0,0,0,0
2023-12-11T02:41:00+09:00,2.6,���k��,8.2,�k��,12.6,77.5,0,0,0,0
2023-12-11T02:42:00+09:00,2.4,���k��,8.2,�k��,12.6,77.6,0,0,0,0
2023-12-11T02:43:00+09:00,2.2,���k��,4.5,���k��,12.6,77.8,0,0,0,0
2023-12-11T02:44:00+09:00,2.2,���k��,4.9,���k��,12.6,77.9,0,0,0,0
2023-12-11T02:45:00+09:00,2.2,���k��,4.9,���k��,12.5,77.7,0,0,0,0
2023-12-11T02:46:00+09:00,2.4,���k��,4.9,���k��,12.6,77.5,0,0,0,0
2023-12-11T02:47:00+09:00,2.5,���k��,4.9,���k��,12.6,77.6,0,0,0,0
2023-12-11T02:48:00+09:00,2.5,���k��,4.9,���k��,12.6,77.7,0,0,0,0
2023-12-11T02:49:00+09:00,2.5,���k��,4.9,���k��,12.5,77.8,0,0,0,0
2023-12-11T02:50:00+09:00,2.4,���k��,4.9,���k��,12.6,77.8,0,0,0,0
2023-12-11T02:51:00+09:00,2.5,���k��,4.9,���k��,12.5,77.9,0,0,0,0
2023-12-11T02:52:00+09:00,2.5,���k��,4.9,���k��,12.5,77.9,0,0,0,0
2023-12-11T02:53:00+09:00,2.4,���k��,4.9,���k��,12.5,77.7,0,0,0,0
2023-12-11T02:54:00+09:00,2.4,���k��,4.6,�k�k��,12.5,77.4,0,0,0,0
2023-12-11T02:55:00+09:00,2.4,���k��,4.6,�k�k��,12.5,77.6,0,0,0,0
2023-12-11T02:56:00+09:00,2.4,���k��,5.3,���k��,12.5,77.5,0,0,0,0
2023-12-11T02:57:00+09:00,2.5,���k��,5.3,���k��,12.5,77.6,0,0,0,0
2023-12-11T02:58:00+09:00,2.6,���k��,5.3,���k��,12.5,77.6,0,0,0,0
2023-12-11T02:59:00+09:00,2.7,���k��,5.3,���k��,12.5,77.5,0,0,0,0
2023-12-11T03:00:00+09:00,2.8,���k��,5.3,���k��,12.5,77.1,0,0,0,0
2023-12-11T03:01:00+09:00,2.8,���k��,5.4,���k��,12.5,77.2,0,0,0,0
2023-12-11T03:02:00+09:00,3,���k��,7.5,���k��,12.5,76.9,0,0,0,0
2023-12-11T03:03:00+09:00,3.1,���k��,7.5,���k��,12.6,76.8,0,0,0,0
2023-12-11T03:04:00+09:00,3.2,���k��,7.5,���k��,12.6,77,0,0,0,0
2023-12-11T03:05:00+09:00,3.4,���k��,7.5,���k��,12.6,77,0,0,0,0
2023-12-11T03:06:00+09:00,3.4,���k��,7.5,���k��,12.6,76.9,0,0,0,0
2023-12-11T03:07:00+09:00,3.4,���k��,7.5,���k��,12.6,76.5,0,0,0,0
2023-12-11T03:08:00+09:00,3.5,���k��,7.5,���k��,12.6,76.3,0,0,0,0
2023-12-11T03:09:00+09:00,3.4,���k��,7.5,���k��,12.6,76.6,0,0,0,0
2023-12-11T03:10:00+09:00,3.3,���k��,7.5,���k��,12.6,76.5,0,0,0,0
2023-12-11T03:11:00+09:00,3.3,���k��,7.5,���k��,12.5,76.7,0,0,0,0
2023-12-11T03:12:00+09:00,3.1,���k��,5.5,�k��,12.5,76.9,0,0,0,0
2023-12-11T03:13:00+09:00,3.1,���k��,5.5,�k��,12.5,76.4,0,0,0,0
2023-12-11T03:14:00+09:00,3.2,���k��,5.5,�k��,12.5,76.1,0,0,0,0
2023-12-11T03:15:00+09:00,3.1,�k��,5.5,�k��,12.6,75.9,0,0,0,0
2023-12-11T03:16:00+09:00,3.2,�k��,6,�k��,12.6,75.9,0,0,0,0
2023-12-11T03:17:00+09:00,3.3,�k��,6.5,�k��,12.6,75.9,0,0,0,0
2023-12-11T03:18:00+09:00,3.5,�k��,6.7,�k��,12.6,75.8,0,0,0,0
2023-12-11T03:19:00+09:00,3.7,�k��,6.7,�k��,12.6,75.9,0,0,0,0
2023-12-11T03:20:00+09:00,4,�k��,7.4,�k��,12.6,75.6,0,0,0,0
2023-12-11T03:21:00+09:00,4.2,�k��,7.4,�k��,12.6,75.5,0,0,0,0
2023-12-11T03:22:00+09:00,4.3,�k��,7.4,�k��,12.5,75.7,0,0,0,0
2023-12-11T03:23:00+09:00,4.3,�k��,7.4,�k��,12.6,75.5,0,0,0,0
2023-12-11T03:24:00+09:00,4.2,�k��,7.4,�k��,12.6,75.6,0,0,0,0
2023-12-11T03:25:00+09:00,4.2,�k��,7.4,�k��,12.5,75.9,0,0,0,0
2023-12-11T03:26:00+09:00,3.9,�k��,7.4,�k��,12.5,76.3,0,0,0,0
2023-12-11T03:27:00+09:00,3.7,�k��,7.4,�k��,12.5,75.9,0,0,0,0
2023-12-11T03:28:00+09:00,3.4,�k��,7.4,�k��,12.5,75.4,0,0,0,0
2023-12-11T03:29:00+09:00,3.2,�k��,7.4,�k��,12.5,76,0,0,0,0
2023-12-11T03:30:00+09:00,2.9,�k��,6.9,�k��,12.5,75.9,0,0,0,0
2023-12-11T03:31:00+09:00,2.6,�k��,5.4,�k��,12.5,75.7,0,0,0,0
2023-12-11T03:32:00+09:00,2.4,�k��,5,�k��,12.5,75.8,0,0,0,0
2023-12-11T03:33:00+09:00,2.3,�k��,4.5,�k��,12.5,75.6,0,0,0,0
2023-12-11T03:34:00+09:00,2.1,�k��,4,�k,12.5,75.8,0,0,0,0
2023-12-11T03:35:00+09:00,2,�k��,4,�k,12.5,76.1,0,0,0,0
2023-12-11T03:36:00+09:00,2,�k��,4,�k,12.5,76.4,0,0,0,0
2023-12-11T03:37:00+09:00,1.9,�k��,3.4,�k��,12.4,76.5,0,0,0,0
2023-12-11T03:38:00+09:00,1.9,�k��,3.4,�k��,12.4,76.3,0,0,0,0
2023-12-11T03:39:00+09:00,1.8,�k��,3.4,�k��,12.4,76.1,0,0,0,0
2023-12-11T03:40:00+09:00,1.9,�k��,5,�k�k��,12.4,75.8,0,0,0,0
2023-12-11T03:41:00+09:00,2.1,�k��,5,�k�k��,12.5,75.3,0,0,0,0
2023-12-11T03:42:00+09:00,2.2,�k��,5,�k�k��,12.5,75.4,0,0,0,0
2023-12-11T03:43:00+09:00,2.4,�k��,6,�k�k��,12.5,75.1,0,0,0,0
2023-12-11T03:44:00+09:00,2.7,�k��,6,�k�k��,12.5,74.9,0,0,0,0
2023-12-11T03:45:00+09:00,3.1,�k��,6.2,�k��,12.5,74.6,0,0,0,0
2023-12-11T03:46:00+09:00,3.5,�k��,7.8,�k�k��,12.6,74.4,0,0,0,0
2023-12-11T03:47:00+09:00,3.9,�k��,7.8,�k�k��,12.6,74.3,0,0,0,0
2023-12-11T03:48:00+09:00,4.1,�k��,7.8,�k�k��,12.6,74.6,0,0,0,0
2023-12-11T03:49:00+09:00,4.2,�k��,7.8,�k�k��,12.5,74.6,0,0,0,0
2023-12-11T03:50:00+09:00,4,�k��,7.8,�k�k��,12.5,74.8,0,0,0,0
2023-12-11T03:51:00+09:00,3.9,�k��,7.8,�k�k��,12.4,75.1,0,0,0,0
2023-12-11T03:52:00+09:00,3.8,�k��,7.8,�k�k��,12.4,75.1,0,0,0,0
2023-12-11T03:53:00+09:00,3.7,�k��,7.8,�k�k��,12.5,74.8,0,0,0,0
2023-12-11T03:54:00+09:00,3.6,�k��,7.8,�k�k��,12.5,75.1,0,0,0,0
2023-12-11T03:55:00+09:00,3.5,�k�k��,7.8,�k�k��,12.4,74.9,0,0,0,0
2023-12-11T03:56:00+09:00,3.1,�k�k��,6.5,�k��,12.5,74.5,0,0,0,0
2023-12-11T03:57:00+09:00,2.9,�k�k��,6.4,���k��,12.4,74.7,0,0,0,0
2023-12-11T03:58:00+09:00,2.8,�k�k��,5.8,���k��,12.4,74.9,0,0,0,0
2023-12-11T03:59:00+09:00,2.8,�k�k��,5.8,���k��,12.4,74.8,0,0,0,0
2023-12-11T04:00:00+09:00,2.7,�k�k��,5.8,���k��,12.4,75,0,0,0,0
2023-12-11T04:01:00+09:00,2.8,�k�k��,5.8,���k��,12.4,75.2,0,0,0,0
2023-12-11T04:02:00+09:00,2.8,�k�k��,5.8,���k��,12.4,75.4,0,0,0,0
2023-12-11T04:03:00+09:00,2.8,�k��,5.8,���k��,12.4,75,0,0,0,0
2023-12-11T04:04:00+09:00,2.7,�k��,5.8,���k��,12.4,74.9,0,0,0,0
2023-12-11T04:05:00+09:00,2.6,�k��,5.8,���k��,12.4,75.6,0,0,0,0
2023-12-11T04:06:00+09:00,2.6,�k��,5.8,���k��,12.4,75.9,0,0,0,0
2023-12-11T04:07:00+09:00,2.4,�k��,5.8,���k��,12.3,76.1,0,0,0,0
2023-12-11T04:08:00+09:00,2.3,�k��,4.5,�k��,12.4,75.7,0,0,0,0
2023-12-11T04:09:00+09:00,2.4,�k��,4.5,�k��,12.3,75.7,0,0,0,0
2023-12-11T04:10:00+09:00,2.4,�k��,4.5,�k��,12.3,76.1,0,0,0,0
2023-12-11T04:11:00+09:00,2.5,�k��,4.6,�k��,12.3,76.1,0,0,0,0
2023-12-11T04:12:00+09:00,2.4,�k��,4.6,�k��,12.3,75.9,0,0,0,0
2023-12-11T04:13:00+09:00,2.5,�k��,4.6,�k��,12.3,75.7,0,0,0,0
2023-12-11T04:14:00+09:00,2.5,�k��,4.7,�k��,12.3,75.7,0,0,0,0
2023-12-11T04:15:00+09:00,2.7,�k��,4.7,�k��,12.3,75.8,0,0,0,0
2023-12-11T04:16:00+09:00,2.8,�k��,4.7,�k��,12.3,75.9,0,0,0,0
2023-12-11T04:17:00+09:00,2.9,�k��,4.7,�k��,12.3,76.1,0,0,0,0
2023-12-11T04:18:00+09:00,3,�k��,4.7,�k��,12.3,76.3,0,0,0,0
2023-12-11T04:19:00+09:00,3,�k��,4.7,�k��,12.3,76.2,0,0,0,0
2023-12-11T04:20:00+09:00,3,�k��,4.7,�k��,12.3,76.5,0,0,0,0
2023-12-11T04:21:00+09:00,2.9,�k��,4.7,�k��,12.2,76.6,0,0,0,0
2023-12-11T04:22:00+09:00,2.8,�k��,4.7,�k��,12.2,76.6,0,0,0,0
2023-12-11T04:23:00+09:00,2.7,�k��,4.7,�k��,12.2,76.6,0,0,0,0
2023-12-11T04:24:00+09:00,2.7,�k��,4.5,�k��,12.3,76.1,0,0,0,0
2023-12-11T04:25:00+09:00,2.5,�k��,4.4,�k��,12.3,75.8,0,0,0,0
2023-12-11T04:26:00+09:00,2.4,�k��,4.4,�k��,12.3,76.3,0,0,0,0
2023-12-11T04:27:00+09:00,2.3,�k��,4.3,�k��,12.2,76.5,0,0,0,0
2023-12-11T04:28:00+09:00,2.3,�k��,4.3,�k��,12.2,76.5,0,0,0,0
2023-12-11T04:29:00+09:00,2.4,�k��,4.3,�k��,12.2,76.4,0,0,0,0
2023-12-11T04:30:00+09:00,2.4,�k��,4.3,�k��,12.2,76.1,0,0,0,0
2023-12-11T04:31:00+09:00,2.5,�k��,4.6,���k��,12.2,76.1,0,0,0,0
2023-12-11T04:32:00+09:00,2.6,�k��,5.7,�k��,12.3,75.9,0,0,0,0
2023-12-11T04:33:00+09:00,2.8,�k��,5.7,�k��,12.3,75.7,0,0,0,0
2023-12-11T04:34:00+09:00,2.8,�k��,5.7,�k��,12.3,75.6,0,0,0,0
2023-12-11T04:35:00+09:00,2.9,�k��,5.7,�k��,12.3,75.6,0,0,0,0
2023-12-11T04:36:00+09:00,3,�k��,5.7,�k��,12.3,75.8,0,0,0,0
2023-12-11T04:37:00+09:00,2.9,�k��,5.7,�k��,12.2,76,0,0,0,0
2023-12-11T04:38:00+09:00,2.9,�k��,5.7,�k��,12.2,76.3,0,0,0,0
2023-12-11T04:39:00+09:00,3,�k��,5.7,�k��,12.2,76.3,0,0,0,0
2023-12-11T04:40:00+09:00,3.2,�k��,5.7,�k��,12.2,75.7,0,0,0,0
2023-12-11T04:41:00+09:00,3.2,�k��,5.7,�k��,12.2,75.5,0,0,0,0
2023-12-11T04:42:00+09:00,3,�k��,5.5,�k��,12.2,75.6,0,0,0,0
2023-12-11T04:43:00+09:00,2.8,�k��,5.5,�k��,12.2,75.9,0,0,0,0
2023-12-11T04:44:00+09:00,2.7,���k��,5.5,�k��,12.2,76.1,0,0,0,0
2023-12-11T04:45:00+09:00,2.6,���k��,5.5,�k��,12.2,76.3,0,0,0,0
2023-12-11T04:46:00+09:00,2.6,���k��,5.5,�k��,12.1,76.5,0,0,0,0
2023-12-11T04:47:00+09:00,2.6,���k��,5.5,�k��,12.1,76.5,0,0,0,0
2023-12-11T04:48:00+09:00,2.5,���k��,5.5,�k��,12.1,76.5,0,0,0,0
2023-12-11T04:49:00+09:00,2.4,���k��,5.2,�k��,12.1,76.5,0,0,0,0
2023-12-11T04:50:00+09:00,2.2,���k��,3.7,�k��,12.1,76.5,0,0,0,0
2023-12-11T04:51:00+09:00,2.2,���k��,3.8,��,12.1,76.5,0,0,0,0
2023-12-11T04:52:00+09:00,2.1,���k��,3.8,��,12.1,76.5,0,0,0,0
2023-12-11T04:53:00+09:00,2.2,���k��,3.8,��,12,76.8,0,0,0,0
2023-12-11T04:54:00+09:00,2.1,���k��,3.8,��,12,76.9,0,0,0,0
2023-12-11T04:55:00+09:00,2.1,���k��,3.8,��,12,77.1,0,0,0,0
2023-12-11T04:56:00+09:00,2.2,���k��,3.8,��,12.1,77.2,0,0,0,0
2023-12-11T04:57:00+09:00,2.1,���k��,3.8,��,12,77.2,0,0,0,0
2023-12-11T04:58:00+09:00,2.3,���k��,3.8,��,12,77.1,0,0,0,0
2023-12-11T04:59:00+09:00,2.3,�k��,4.8,�k��,12.1,76.4,0,0,0,0
2023-12-11T05:00:00+09:00,2.3,�k��,4.8,�k��,12.1,76.4,0,0,0,0
2023-12-11T05:01:00+09:00,2.3,�k��,4.8,�k��,12.1,76.4,0,0,0,0
2023-12-11T05:02:00+09:00,2.4,�k��,4.9,�k��,12.1,76,0,0,0,0
2023-12-11T05:03:00+09:00,2.5,�k��,4.9,�k��,12.1,75.7,0,0,0,0
2023-12-11T05:04:00+09:00,2.4,�k��,4.9,�k��,12.1,76.2,0,0,0,0
2023-12-11T05:05:00+09:00,2.4,�k��,4.9,�k��,12.1,76.4,0,0,0,0
2023-12-11T05:06:00+09:00,2.4,�k��,4.9,�k��,12.1,76.4,0,0,0,0
2023-12-11T05:07:00+09:00,2.4,�k��,4.9,�k��,12.1,75.8,0,0,0,0
2023-12-11T05:08:00+09:00,2.4,���k��,4.9,�k��,12.1,76.2,0,0,0,0
2023-12-11T05:09:00+09:00,2.4,���k��,4.9,�k��,12.1,76,0,0,0,0
2023-12-11T05:10:00+09:00,2.4,���k��,4.9,�k��,12,76.2,0,0,0,0
2023-12-11T05:11:00+09:00,2.3,���k��,4.9,�k��,12,76.2,0,0,0,0
2023-12-11T05:12:00+09:00,2.2,���k��,4.7,�k��,12.1,76,0,0,0,0
2023-12-11T05:13:00+09:00,2,���k��,4.6,�k��,12,76.2,0,0,0,0
2023-12-11T05:14:00+09:00,2.1,���k��,4.6,�k��,12,76.2,0,0,0,0
2023-12-11T05:15:00+09:00,2.1,���k��,4.6,�k��,12,76.2,0,0,0,0
2023-12-11T05:16:00+09:00,2.1,���k��,4.6,�k��,12,76.3,0,0,0,0
2023-12-11T05:17:00+09:00,2,���k��,4.6,�k��,12,76.3,0,0,0,0
2023-12-11T05:18:00+09:00,2,���k��,3.8,���k��,12,76.4,0,0,0,0
2023-12-11T05:19:00+09:00,1.9,���k��,3.4,���k��,12,76.3,0,0,0,0
2023-12-11T05:20:00+09:00,1.9,���k��,3.4,���k��,12,76.4,0,0,0,0
2023-12-11T05:21:00+09:00,2,���k��,3.4,���k��,12,76.3,0,0,0,0
2023-12-11T05:22:00+09:00,2,���k��,3.4,���k��,11.9,76.3,0,0,0,0
2023-12-11T05:23:00+09:00,2,���k��,3.4,���k��,12,76.1,0,0,0,0
2023-12-11T05:24:00+09:00,1.8,���k��,3.4,���k��,11.9,76.3,0,0,0,0
2023-12-11T05:25:00+09:00,1.8,���k��,3.4,���k��,11.9,76.4,0,0,0,0
2023-12-11T05:26:00+09:00,1.7,���k��,3.4,���k��,11.9,76.3,0,0,0,0
2023-12-11T05:27:00+09:00,1.7,���k��,3.3,���k��,11.9,76.5,0,0,0,0
2023-12-11T05:28:00+09:00,1.6,���k��,3,���k��,11.9,76.5,0,0,0,0
2023-12-11T05:29:00+09:00,1.6,���k��,3,���k��,11.9,76.6,0,0,0,0
2023-12-11T05:30:00+09:00,1.5,���k��,3,���k��,11.9,76.5,0,0,0,0
2023-12-11T05:31:00+09:00,1.4,���k��,2.7,�k�k��,11.9,76.5,0,0,0,0
2023-12-11T05:32:00+09:00,1.3,���k��,2.4,���k��,11.9,76.5,0,0,0,0
2023-12-11T05:33:00+09:00,1.3,���k��,2.9,���k��,11.9,76.5,0,0,0,0
2023-12-11T05:34:00+09:00,1.5,���k��,3.5,���k��,11.9,76.5,0,0,0,0
2023-12-11T05:35:00+09:00,1.5,���k��,3.5,���k��,11.8,76.5,0,0,0,0
2023-12-11T05:36:00+09:00,1.5,���k��,3.5,���k��,11.8,76.6,0,0,0,0
2023-12-11T05:37:00+09:00,1.7,���k��,3.8,���k��,11.9,76.2,0,0,0,0
2023-12-11T05:38:00+09:00,1.7,���k��,3.8,���k��,11.9,75.7,0,0,0,0
2023-12-11T05:39:00+09:00,1.7,���k��,3.8,���k��,12,75.7,0,0,0,0
2023-12-11T05:40:00+09:00,1.7,���k��,3.8,���k��,11.9,75.8,0,0,0,0
2023-12-11T05:41:00+09:00,1.7,���k��,3.8,���k��,11.9,75.9,0,0,0,0
2023-12-11T05:42:00+09:00,1.8,���k��,3.8,���k��,11.9,75.9,0,0,0,0
2023-12-11T05:43:00+09:00,1.8,���k��,3.8,���k��,11.9,76.1,0,0,0,0
2023-12-11T05:44:00+09:00,1.7,���k��,3.8,���k��,11.9,76.1,0,0,0,0
2023-12-11T05:45:00+09:00,1.7,���k��,3.8,���k��,11.9,76,0,0,0,0
2023-12-11T05:46:00+09:00,1.7,���k��,3.8,���k��,11.9,76.1,0,0,0,0
2023-12-11T05:47:00+09:00,1.6,���k��,3.1,���k��,11.9,76.1,0,0,0,0
2023-12-11T05:48:00+09:00,1.6,���k��,3.5,���k��,11.9,76.2,0,0,0,0
2023-12-11T05:49:00+09:00,1.8,���k��,5.7,�k��,11.9,76.2,0,0,0,0
2023-12-11T05:50:00+09:00,1.9,���k��,5.7,�k��,11.9,75.3,0,0,0,0
2023-12-11T05:51:00+09:00,2.1,���k��,5.7,�k��,12,75,0,0,0,0
2023-12-11T05:52:00+09:00,2.3,���k��,5.7,�k��,12,75.3,0,0,0,0
2023-12-11T05:53:00+09:00,2.3,���k��,5.7,�k��,11.9,75.6,0,0,0,0
2023-12-11T05:54:00+09:00,2.3,���k��,5.7,�k��,11.9,75.8,0,0,0,0
2023-12-11T05:55:00+09:00,2.3,���k��,5.7,�k��,11.8,76,0,0,0,0
2023-12-11T05:56:00+09:00,2.5,���k��,5.7,�k��,11.9,75.9,0,0,0,0
2023-12-11T05:57:00+09:00,2.5,���k��,5.7,�k��,11.9,75.6,0,0,0,0
2023-12-11T05:58:00+09:00,2.4,�k��,5.7,�k��,11.9,75.4,0,0,0,0
2023-12-11T05:59:00+09:00,2.2,�k��,5.1,���k��,11.9,75.8,0,0,0,0
2023-12-11T06:00:00+09:00,2,�k��,5.1,���k��,11.8,75.9,0,0,0,0
2023-12-11T06:01:00+09:00,1.9,�k��,4.5,�k��,11.8,76,0,0,0,0
2023-12-11T06:02:00+09:00,1.7,�k��,3.6,�k��,11.8,76.1,0,0,0,0
2023-12-11T06:03:00+09:00,1.7,�k��,3.6,�k��,11.8,76.2,0,0,0,0
2023-12-11T06:04:00+09:00,1.7,���k��,3.6,�k��,11.8,76,0,0,0,0
2023-12-11T06:05:00+09:00,1.8,�k��,4.1,�k��,11.8,76,0,0,0,0
2023-12-11T06:06:00+09:00,1.8,�k��,4.3,�k�k��,11.8,76,0,0,0,0
2023-12-11T06:07:00+09:00,1.9,�k��,4.3,�k�k��,11.8,75.8,0,0,0,0
2023-12-11T06:08:00+09:00,1.9,���k��,4.3,�k�k��,11.8,75.7,0,0,0,0
2023-12-11T06:09:00+09:00,2,���k��,4.3,�k�k��,11.8,75.9,0,0,0,0
2023-12-11T06:10:00+09:00,2,���k��,4.3,�k�k��,11.8,76.1,0,0,0,0
2023-12-11T06:11:00+09:00,1.9,���k��,4.3,�k�k��,11.8,76,0,0,0,0
2023-12-11T06:12:00+09:00,1.9,���k��,4.3,�k�k��,11.8,76.2,0,0,0,0
2023-12-11T06:13:00+09:00,2,���k��,4.3,�k�k��,11.8,75.8,0,0,0,0
2023-12-11T06:14:00+09:00,1.9,���k��,4.3,�k�k��,11.9,75.6,0,0,0,0